Change the Weather History Date:

Tuesday, March 26, 2013

  Actual Average Record
Temperature  
Mean Temperature 26 °F -  
Max Temperature 42 °F 56 °F 87 °F (2012)
Min Temperature 10 °F 27 °F -4 °F (1965)
Degree Days  
Heating Degree Days 39    
Moisture  
Dew Point 19 °F    
Average Humidity 70    
Maximum Humidity 91    
Minimum Humidity 39    
Precipitation  
Precipitation 0.00 in - - ()
Sea Level Pressure  
Sea Level Pressure 30.11 in    
Wind  
Wind Speed 3 mph (SSW)    
Max Wind Speed 16 mph    
Max Gust Speed 23 mph    
Visibility 10 miles    
Events      
Averages and records for this station are not official NWS values.
T = Trace of Precipitation, MM = Missing Value Source: NWS Daily Summary

Daily Weather History Graph

Daily Weather History Graph

Search for Another Location

Airport or City:

Trip Planner

Search our weather history database for the weather conditions in past years. The results will help you decide how hot, cold, wet, or windy it might be!

Date:

Astronomy

Mar. 26, 2013 Rise Set
Actual Time 6:39 AM MDT 7:06 PM MDT
Civil Twilight 6:12 AM MDT 7:33 PM MDT
Nautical Twilight 5:39 AM MDT 8:06 PM MDT
Astronomical Twilight 5:06 AM MDT 8:39 PM MDT
Moon 6:45 PM MDT (3/26) 5:57 AM MDT (3/26)
Length of Visible Light 13h 21m
Length of Day
12h 26m
Waxing Gibbous, 99% of the Moon is Illuminated
Mar 26
Waxing Gibbous
Mar 27
Full
Apr 2
Last Quarter
Apr 10
New
Apr 18
First Quarter

Hourly Weather History & Observations

Time (MDT) Temp. Windchill Dew Point Humidity Pressure Visibility Wind Dir Wind Speed Gust Speed Precip Events Conditions
12:15 AM 16.9 °F - 13.1 °F 85% 30.25 in 10.0 mi Calm Calm - N/A   Clear
12:35 AM 16.7 °F - 12.6 °F 84% 30.25 in 10.0 mi Calm Calm - N/A   Clear
12:55 AM 15.4 °F - 11.7 °F 85% 30.25 in 10.0 mi Calm Calm - N/A   Clear
1:15 AM 15.8 °F - 13.1 °F 89% 30.24 in 10.0 mi Calm Calm - N/A   Clear
1:35 AM 14.4 °F - 11.5 °F 88% 30.24 in 10.0 mi Calm Calm - N/A   Clear
1:55 AM 14.4 °F - 11.7 °F 89% 30.23 in 10.0 mi Calm Calm - N/A   Clear
2:15 AM 13.8 °F - 11.1 °F 89% 30.22 in 10.0 mi Calm Calm - N/A   Clear
2:35 AM 13.5 °F - 11.3 °F 91% 30.21 in 10.0 mi Calm Calm - N/A   Clear
2:55 AM 14.0 °F - 11.3 °F 89% 30.21 in 10.0 mi Calm Calm - N/A   Clear
3:15 AM 14.2 °F - 11.8 °F 90% 30.20 in 10.0 mi Calm Calm - N/A   Clear
3:35 AM 13.1 °F - 10.8 °F 90% 30.20 in 10.0 mi Calm Calm - N/A   Clear
3:55 AM 12.9 °F - 10.4 °F 90% 30.20 in 10.0 mi Calm Calm - N/A   Clear
4:15 AM 12.9 °F - 10.2 °F 89% 30.19 in 10.0 mi Calm Calm - N/A   Clear
4:35 AM 12.7 °F - 10.2 °F 90% 30.18 in 10.0 mi Calm Calm - N/A   Clear
4:55 AM 12.4 °F - 9.9 °F 90% 30.18 in 10.0 mi Calm Calm - N/A   Clear
5:15 AM 11.8 °F 5.7 °F 8.8 °F 88% 30.18 in 10.0 mi WSW 3.5 mph - N/A   Clear
5:35 AM 11.1 °F 4.9 °F 8.4 °F 89% 30.18 in 10.0 mi West 3.5 mph - N/A   Clear
5:55 AM 10.8 °F - 7.9 °F 88% 30.18 in 10.0 mi Calm Calm - N/A   Clear
6:15 AM 11.3 °F - 8.4 °F 88% 30.17 in 10.0 mi Calm Calm - N/A   Clear
6:35 AM 10.0 °F - 7.2 °F 88% 30.17 in 10.0 mi Calm Calm - N/A   Clear
6:55 AM 10.4 °F - 7.7 °F 89% 30.18 in 10.0 mi Calm Calm - N/A   Clear
7:15 AM 11.1 °F - 7.9 °F 87% 30.17 in 10.0 mi Calm Calm - N/A   Clear
7:35 AM 12.0 °F - 8.8 °F 87% 30.17 in 10.0 mi Calm Calm - N/A   Clear
7:55 AM 14.0 °F - 10.8 °F 87% 30.17 in 10.0 mi Calm Calm - N/A   Clear
8:15 AM 17.2 °F - 13.3 °F 84% 30.16 in 10.0 mi Calm Calm - N/A   Clear
8:35 AM 19.8 °F - 14.7 °F 81% 30.16 in 10.0 mi Calm Calm - N/A   Clear
8:55 AM 22.6 °F 15.3 °F 13.1 °F 67% 30.16 in 10.0 mi South 5.8 mph - N/A   Clear
9:15 AM 23.9 °F 16.8 °F 12.2 °F 61% 30.16 in 10.0 mi SSW 5.8 mph - N/A   Clear
9:35 AM 26.2 °F - 13.1 °F 58% 30.15 in 10.0 mi Calm Calm - N/A   Clear
9:55 AM 30.2 °F 25.4 °F 14.2 °F 51% 30.14 in 10.0 mi South 4.6 mph - N/A   Clear
10:15 AM 32.9 °F 24.1 °F 12.0 °F 42% 30.12 in 10.0 mi SSW 11.5 mph - N/A   Clear
10:35 AM 35.2 °F 27.6 °F 14.9 °F 43% 30.12 in 10.0 mi SSW 10.4 mph - N/A   Clear
10:55 AM 36.5 °F 28.7 °F 15.6 °F 43% 30.11 in 10.0 mi SSW 11.5 mph - N/A   Clear
11:15 AM 37.0 °F 29.3 °F 16.0 °F 42% 30.11 in 10.0 mi SSW 11.5 mph - N/A   Clear
11:35 AM 37.8 °F 29.8 °F 14.5 °F 39% 30.11 in 10.0 mi SSW 12.7 mph 19.6 mph N/A   Clear
11:55 AM 38.3 °F 29.7 °F 16.2 °F 41% 30.10 in 10.0 mi SSW 15.0 mph 23.0 mph N/A   Clear
12:15 PM 39.0 °F 30.6 °F 19.2 °F 45% 30.09 in 10.0 mi SSW 15.0 mph 21.9 mph N/A   Clear
12:35 PM 38.1 °F 29.1 °F 19.9 °F 48% 30.08 in 10.0 mi South 16.1 mph - N/A   Clear
12:55 PM 38.8 °F 31.6 °F 20.5 °F 48% 30.07 in 10.0 mi SSW 11.5 mph - N/A   Clear
1:15 PM 39.2 °F 32.0 °F 20.5 °F 47% 30.07 in 10.0 mi SSW 11.5 mph - N/A   Clear
1:35 PM 39.4 °F 32.3 °F 22.3 °F 50% 30.06 in 10.0 mi SSW 11.5 mph - N/A   Clear
1:55 PM 41.0 °F 33.9 °F 22.8 °F 48% 30.05 in 10.0 mi SSW 12.7 mph - N/A   Clear
2:15 PM 40.5 °F 33.6 °F 23.4 °F 51% 30.04 in 10.0 mi SSW 11.5 mph - N/A   Clear
2:35 PM 41.2 °F 34.1 °F 24.4 °F 51% 30.04 in 10.0 mi South 12.7 mph 18.4 mph N/A   Clear
2:55 PM 41.2 °F 34.5 °F 25.2 °F 53% 30.03 in 10.0 mi SSW 11.5 mph - N/A   Clear
3:15 PM 42.1 °F 35.2 °F 25.3 °F 52% 30.02 in 10.0 mi South 12.7 mph - N/A   Clear
3:35 PM 41.9 °F 35.0 °F 25.5 °F 52% 30.02 in 10.0 mi South 12.7 mph - N/A   Clear
3:55 PM 42.8 °F 35.4 °F 27.1 °F 54% 30.01 in 10.0 mi SSW 15.0 mph 19.6 mph N/A   Clear
4:15 PM 41.9 °F 35.0 °F 27.1 °F 56% 30.01 in 10.0 mi South 12.7 mph - N/A   Clear
4:35 PM 41.9 °F 35.4 °F 27.5 °F 57% 30.00 in 10.0 mi South 11.5 mph - N/A   Clear
4:55 PM 41.7 °F 36.1 °F 27.9 °F 58% 30.00 in 10.0 mi South 9.2 mph - N/A   Clear
5:15 PM 41.9 °F 35.4 °F 27.7 °F 57% 30.00 in 10.0 mi South 11.5 mph - N/A   Clear
5:35 PM 41.0 °F 35.8 °F 28.0 °F 60% 30.00 in 10.0 mi South 8.1 mph - N/A   Clear
5:55 PM 40.1 °F 35.3 °F 28.4 °F 63% 30.01 in 10.0 mi South 6.9 mph - N/A   Clear
6:15 PM 39.2 °F 34.2 °F 28.4 °F 65% 30.01 in 10.0 mi South 6.9 mph - N/A   Clear
6:35 PM 38.3 °F 34.8 °F 28.2 °F 67% 30.01 in 10.0 mi South 4.6 mph - N/A   Clear
6:55 PM 37.9 °F - 28.0 °F 68% 30.02 in 10.0 mi Calm Calm - N/A   Clear
7:15 PM 37.8 °F - 28.0 °F 68% 30.02 in 10.0 mi Calm Calm - N/A   Clear
7:35 PM 37.4 °F - 28.0 °F 69% 30.02 in 10.0 mi Calm Calm - N/A   Scattered Clouds
7:55 PM 37.4 °F - 28.0 °F 69% 30.02 in 10.0 mi Calm Calm - N/A   Mostly Cloudy
8:15 PM 36.0 °F - 28.4 °F 74% 30.04 in 10.0 mi Calm Calm - N/A   Overcast
8:35 PM 36.5 °F - 28.4 °F 72% 30.04 in 10.0 mi Calm Calm - N/A   Overcast
8:55 PM 35.6 °F - 28.4 °F 75% 30.04 in 10.0 mi Calm Calm - N/A   Overcast
9:15 PM 35.6 °F - 28.6 °F 76% 30.04 in 10.0 mi Calm Calm - N/A   Overcast
9:35 PM 35.6 °F 32.8 °F 28.9 °F 77% 30.05 in 10.0 mi ESE 3.5 mph - N/A   Overcast
9:55 PM 35.2 °F - 29.1 °F 78% 30.06 in 10.0 mi Calm Calm - N/A   Overcast
10:15 PM 35.4 °F - 29.1 °F 78% 30.06 in 10.0 mi Calm Calm - N/A   Overcast
10:35 PM 36.0 °F - 28.2 °F 73% 30.05 in 10.0 mi Calm Calm - N/A   Overcast
10:55 PM 34.0 °F - 29.3 °F 83% 30.06 in 10.0 mi Calm Calm - N/A   Overcast
11:15 PM 34.9 °F 29.9 °F 29.3 °F 80% 30.05 in 10.0 mi East 5.8 mph - N/A   Overcast
11:35 PM 35.6 °F - 28.4 °F 75% 30.05 in 10.0 mi Calm Calm - N/A   Overcast
11:55 PM 36.3 °F - 27.9 °F 71% 30.05 in 10.0 mi Calm Calm - N/A   Overcast